AAL820 KPHX-KLAX

Flight info

Callsign AAL820
Flight time 0h 56m
Altitude 28000
Route KEENS3 WLVRN ESTWD HLYWD1
Aircraft A21N/M-SDE2E3FGHIRWXY/LB1

Departure

Time 2026-05-05 23:52
Airport Phoenix Sky Harbor International Airport (KPHX)

Arrival

Time 2026-05-06 00:49
Airport Los Angeles International Airport (KLAX)
Time Latitude Longitude Altitude Speed Heading
2026-05-05 23:32 33.43719 -112.00127 1136 ft 0 kts 270°
2026-05-05 23:43 33.43719 -112.00108 1136 ft 4 kts 262°
2026-05-05 23:43 33.43722 -112.00094 1135 ft 4 kts 235°
2026-05-05 23:43 33.43740 -112.00079 1135 ft 4 kts 186°
2026-05-05 23:43 33.43756 -112.00078 1136 ft 1 kts 180°
2026-05-05 23:44 33.43758 -112.00078 1136 ft 0 kts 180°
2026-05-05 23:45 33.43755 -112.00076 1136 ft 2 kts 160°
2026-05-05 23:46 33.43753 -112.00043 1133 ft 7 kts 55°
2026-05-05 23:46 33.43820 -112.00033 1135 ft 12 kts
2026-05-05 23:46 33.43904 -111.99999 1134 ft 14 kts 68°
2026-05-05 23:46 33.43905 -111.99864 1131 ft 19 kts 89°
2026-05-05 23:47 33.43905 -111.99690 1132 ft 23 kts 89°
2026-05-05 23:47 33.43913 -111.99480 1134 ft 27 kts 87°
2026-05-05 23:47 33.43897 -111.99266 1132 ft 20 kts 110°
2026-05-05 23:47 33.43820 -111.99228 1133 ft 19 kts 184°
2026-05-05 23:48 33.43684 -111.99230 1133 ft 20 kts 179°
2026-05-05 23:48 33.43545 -111.99230 1134 ft 20 kts 180°
2026-05-05 23:48 33.43409 -111.99231 1134 ft 19 kts 179°
2026-05-05 23:48 33.43311 -111.99231 1131 ft 9 kts 181°
2026-05-05 23:49 33.43246 -111.99233 1134 ft 9 kts 186°
2026-05-05 23:49 33.43202 -111.99273 1137 ft 7 kts 224°
2026-05-05 23:49 33.43198 -111.99278 1135 ft 0 kts 225°
2026-05-05 23:50 33.43187 -111.99290 1136 ft 7 kts 224°
2026-05-05 23:50 33.43136 -111.99350 1138 ft 11 kts 224°
2026-05-05 23:50 33.43104 -111.99424 1138 ft 10 kts 269°
2026-05-05 23:51 33.43104 -111.99446 1135 ft 0 kts 269°
2026-05-05 23:51 33.43104 -111.99456 1135 ft 11 kts 269°
2026-05-05 23:52 33.43101 -111.99856 1138 ft 84 kts 269°
2026-05-05 23:52 33.43101 -112.00813 1136 ft 144 kts 270°
2026-05-05 23:52 33.43104 -112.02189 1301 ft 178 kts 270°
2026-05-05 23:52 33.43096 -112.03706 1949 ft 182 kts 267°
2026-05-05 23:53 33.43021 -112.05201 2762 ft 179 kts 265°
2026-05-05 23:53 33.42930 -112.06751 3269 ft 196 kts 264°
2026-05-05 23:53 33.42638 -112.08408 3688 ft 210 kts 248°
2026-05-05 23:53 33.42071 -112.10048 4250 ft 219 kts 248°
2026-05-05 23:54 33.41503 -112.11811 4560 ft 233 kts 248°
2026-05-05 23:54 33.40925 -112.13658 4978 ft 244 kts 249°
2026-05-05 23:54 33.40317 -112.15614 5472 ft 255 kts 249°
2026-05-05 23:54 33.39692 -112.17617 6217 ft 258 kts 249°
2026-05-05 23:55 33.39188 -112.19687 6897 ft 262 kts 264°
2026-05-05 23:55 33.39345 -112.21875 7584 ft 266 kts 279°
2026-05-05 23:55 33.39680 -112.24062 8313 ft 269 kts 279°
2026-05-05 23:55 33.40016 -112.26274 9019 ft 272 kts 279°
2026-05-05 23:56 33.40353 -112.28512 9743 ft 274 kts 279°
2026-05-05 23:56 33.40694 -112.30794 10177 ft 287 kts 279°
2026-05-05 23:56 33.41056 -112.33237 10312 ft 309 kts 279°
2026-05-05 23:56 33.41443 -112.35835 10633 ft 322 kts 279°
2026-05-05 23:57 33.41842 -112.38498 11201 ft 327 kts 279°
2026-05-05 23:57 33.42244 -112.41194 11820 ft 330 kts 278°
2026-05-05 23:57 33.42647 -112.43917 12429 ft 334 kts 278°
2026-05-05 23:57 33.43050 -112.46664 13036 ft 337 kts 278°
2026-05-05 23:58 33.43458 -112.49441 13650 ft 340 kts 278°
2026-05-05 23:58 33.43868 -112.52241 14197 ft 343 kts 278°
2026-05-05 23:58 33.44281 -112.55063 14769 ft 345 kts 278°
2026-05-05 23:58 33.44691 -112.57866 15341 ft 348 kts 278°
2026-05-05 23:59 33.45023 -112.60738 15872 ft 350 kts 271°
2026-05-05 23:59 33.45067 -112.63657 16426 ft 352 kts 269°
2026-05-05 23:59 33.45102 -112.66596 16967 ft 354 kts 270°
2026-05-05 23:59 33.45140 -112.69555 17501 ft 357 kts 270°
2026-05-06 00:00 33.45181 -112.72536 18037 ft 360 kts 270°
2026-05-06 00:00 33.45221 -112.75542 18524 ft 362 kts 270°
2026-05-06 00:00 33.45328 -112.78566 19008 ft 365 kts 275°
2026-05-06 00:00 33.45870 -112.81540 19516 ft 367 kts 286°
2026-05-06 00:01 33.46821 -112.84387 20024 ft 369 kts 290°
2026-05-06 00:01 33.47824 -112.87219 20518 ft 370 kts 290°
2026-05-06 00:01 33.48826 -112.90067 21013 ft 370 kts 289°
2026-05-06 00:01 33.49821 -112.92917 21495 ft 371 kts 289°
2026-05-06 00:02 33.50816 -112.95780 21963 ft 373 kts 289°
2026-05-06 00:02 33.51814 -112.98653 22404 ft 374 kts 289°
2026-05-06 00:02 33.52818 -113.01541 22841 ft 376 kts 289°
2026-05-06 00:02 33.53829 -113.04445 23249 ft 379 kts 289°
2026-05-06 00:03 33.54849 -113.07370 23586 ft 383 kts 289°
2026-05-06 00:03 33.55879 -113.10326 23930 ft 384 kts 288°
2026-05-06 00:03 33.56909 -113.13285 24327 ft 385 kts 288°
2026-05-06 00:03 33.57945 -113.16260 24697 ft 387 kts 288°
2026-05-06 00:04 33.58966 -113.19197 25060 ft 388 kts 287°
2026-05-06 00:04 33.60004 -113.22189 25420 ft 389 kts 287°
2026-05-06 00:04 33.61046 -113.25197 25789 ft 391 kts 287°
2026-05-06 00:04 33.62090 -113.28210 26146 ft 392 kts 287°
2026-05-06 00:05 33.64193 -113.34280 26834 ft 396 kts 286°
2026-05-06 00:05 33.65249 -113.37329 27172 ft 397 kts 286°
2026-05-06 00:05 33.66313 -113.40405 27507 ft 399 kts 286°
2026-05-06 00:06 33.67372 -113.43484 27852 ft 400 kts 285°
2026-05-06 00:06 33.68436 -113.46580 28178 ft 402 kts 285°
2026-05-06 00:06 33.69503 -113.49684 28502 ft 403 kts 285°
2026-05-06 00:06 33.70573 -113.52806 28819 ft 405 kts 285°
2026-05-06 00:07 33.71645 -113.55937 29135 ft 406 kts 285°
2026-05-06 00:07 33.72723 -113.59074 29453 ft 407 kts 285°
2026-05-06 00:07 33.73806 -113.62229 29753 ft 409 kts 285°
2026-05-06 00:07 33.74888 -113.65393 30024 ft 410 kts 285°
2026-05-06 00:08 33.75783 -113.68009 30200 ft 411 kts 285°
2026-05-06 00:08 33.76874 -113.71190 30394 ft 413 kts 285°
2026-05-06 00:08 33.77967 -113.74389 30596 ft 415 kts 285°
2026-05-06 00:08 33.79063 -113.77605 30776 ft 416 kts 285°
2026-05-06 00:09 33.80165 -113.80838 30951 ft 418 kts 285°
2026-05-06 00:09 33.80897 -113.82989 31108 ft 418 kts 285°
2026-05-06 00:09 33.82001 -113.86226 31350 ft 418 kts 285°
2026-05-06 00:09 33.83104 -113.89457 31587 ft 418 kts 285°
2026-05-06 00:10 33.84192 -113.92651 31796 ft 418 kts 285°
2026-05-06 00:10 33.86353 -113.99012 31860 ft 401 kts 286°
2026-05-06 00:11 33.88447 -114.05196 31860 ft 398 kts 285°
2026-05-06 00:11 33.90460 -114.11393 31860 ft 395 kts 281°
2026-05-06 00:12 33.91618 -114.17817 31856 ft 393 kts 276°
2026-05-06 00:12 33.92709 -114.24271 31858 ft 394 kts 277°
2026-05-06 00:13 33.93806 -114.30737 31862 ft 395 kts 277°
2026-05-06 00:13 33.94900 -114.37223 31862 ft 396 kts 277°
2026-05-06 00:14 33.96000 -114.43718 31850 ft 396 kts 277°
2026-05-06 00:14 33.97093 -114.50235 31849 ft 397 kts 277°
2026-05-06 00:15 33.98182 -114.56769 31852 ft 398 kts 277°
2026-05-06 00:15 33.99272 -114.63315 31846 ft 399 kts 278°
2026-05-06 00:16 34.00368 -114.69884 31850 ft 400 kts 278°
2026-05-06 00:16 34.01449 -114.76434 31853 ft 402 kts 278°
2026-05-06 00:17 34.02539 -114.83053 31854 ft 403 kts 278°
2026-05-06 00:17 34.03633 -114.89696 31858 ft 405 kts 278°
2026-05-06 00:18 34.04728 -114.96361 31859 ft 406 kts 279°
2026-05-06 00:18 34.05817 -115.03055 31858 ft 407 kts 279°
2026-05-06 00:19 34.06907 -115.09762 31857 ft 408 kts 279°
2026-05-06 00:19 34.08000 -115.16493 31859 ft 409 kts 279°
2026-05-06 00:20 34.09095 -115.23235 31861 ft 410 kts 279°
2026-05-06 00:20 34.10191 -115.30000 31862 ft 411 kts 279°
2026-05-06 00:21 34.11281 -115.36783 31861 ft 412 kts 279°
2026-05-06 00:21 34.12362 -115.43577 31861 ft 413 kts 279°
2026-05-06 00:22 34.13445 -115.50389 31860 ft 414 kts 279°
2026-05-06 00:22 34.14529 -115.57215 31861 ft 415 kts 280°
2026-05-06 00:23 34.15611 -115.64058 31866 ft 415 kts 280°
2026-05-06 00:23 34.16178 -115.70927 31868 ft 415 kts 266°
2026-05-06 00:24 34.15535 -115.77853 31879 ft 415 kts 263°
2026-05-06 00:24 34.14866 -115.84788 31895 ft 416 kts 264°
2026-05-06 00:25 34.14194 -115.91740 31909 ft 417 kts 264°
2026-05-06 00:25 34.13509 -115.98700 31921 ft 418 kts 264°
2026-05-06 00:26 34.12822 -116.05679 31928 ft 419 kts 264°
2026-05-06 00:26 34.12134 -116.12674 31933 ft 420 kts 264°
2026-05-06 00:27 34.11443 -116.19682 31937 ft 421 kts 264°
2026-05-06 00:27 34.10746 -116.26702 31935 ft 422 kts 264°
2026-05-06 00:28 34.10037 -116.33704 31354 ft 418 kts 264°
2026-05-06 00:28 34.09669 -116.37174 30832 ft 415 kts 264°
2026-05-06 00:28 34.09295 -116.40619 30297 ft 413 kts 264°
2026-05-06 00:28 34.08920 -116.44042 29746 ft 411 kts 264°
2026-05-06 00:29 34.08547 -116.47444 29217 ft 406 kts 264°
2026-05-06 00:29 34.08179 -116.50804 28708 ft 402 kts 264°
2026-05-06 00:29 34.07815 -116.54122 28219 ft 397 kts 264°
2026-05-06 00:29 34.07458 -116.57406 27730 ft 393 kts 264°
2026-05-06 00:30 34.07113 -116.60658 27309 ft 387 kts 265°
2026-05-06 00:30 34.06802 -116.63864 26831 ft 384 kts 265°
2026-05-06 00:30 34.06513 -116.67055 26323 ft 382 kts 266°
2026-05-06 00:30 34.06234 -116.70227 25831 ft 380 kts 266°
2026-05-06 00:31 34.05954 -116.73384 25365 ft 378 kts 266°
2026-05-06 00:31 34.05670 -116.76531 24899 ft 376 kts 265°
2026-05-06 00:31 34.05387 -116.79606 24446 ft 373 kts 265°
2026-05-06 00:31 34.05097 -116.82709 24001 ft 371 kts 266°
2026-05-06 00:32 34.04807 -116.85790 23536 ft 369 kts 266°
2026-05-06 00:32 34.04516 -116.88857 23036 ft 366 kts 265°
2026-05-06 00:32 34.04188 -116.91891 22591 ft 363 kts 264°
2026-05-06 00:32 34.03808 -116.94891 22149 ft 361 kts 263°
2026-05-06 00:33 34.03402 -116.97862 21707 ft 358 kts 263°
2026-05-06 00:33 34.02993 -117.00812 21264 ft 355 kts 263°
2026-05-06 00:33 34.02591 -117.03743 20829 ft 353 kts 263°
2026-05-06 00:33 34.02219 -117.06651 20399 ft 350 kts 264°
2026-05-06 00:34 34.01873 -117.09542 19965 ft 347 kts 264°
2026-05-06 00:34 34.01540 -117.12413 19530 ft 344 kts 264°
2026-05-06 00:34 34.01322 -117.14305 19256 ft 343 kts 264°
2026-05-06 00:34 34.00993 -117.17137 18835 ft 340 kts 264°
2026-05-06 00:35 34.00665 -117.19943 18419 ft 338 kts 264°
2026-05-06 00:35 34.00336 -117.22745 17945 ft 336 kts 264°
2026-05-06 00:35 34.00006 -117.25521 17512 ft 333 kts 264°
2026-05-06 00:35 33.99676 -117.28269 17101 ft 330 kts 263°
2026-05-06 00:36 33.99346 -117.31001 16685 ft 328 kts 264°
2026-05-06 00:36 33.99024 -117.33706 16275 ft 325 kts 264°
2026-05-06 00:36 33.98707 -117.36396 15871 ft 323 kts 264°
2026-05-06 00:36 33.98395 -117.39065 15472 ft 321 kts 264°
2026-05-06 00:37 33.98085 -117.41715 15073 ft 318 kts 264°
2026-05-06 00:37 33.97775 -117.44352 14679 ft 316 kts 264°
2026-05-06 00:37 33.97468 -117.46964 14278 ft 315 kts 264°
2026-05-06 00:37 33.97255 -117.49576 13880 ft 311 kts 271°
2026-05-06 00:38 33.97293 -117.52178 13367 ft 311 kts 273°
2026-05-06 00:38 33.97337 -117.54779 12900 ft 310 kts 273°
2026-05-06 00:38 33.97377 -117.57368 12433 ft 309 kts 273°
2026-05-06 00:38 33.97415 -117.59946 12024 ft 306 kts 273°
2026-05-06 00:39 33.97452 -117.62509 11518 ft 307 kts 273°
2026-05-06 00:39 33.97490 -117.65080 11042 ft 307 kts 273°
2026-05-06 00:39 33.97526 -117.67642 10660 ft 304 kts 274°
2026-05-06 00:39 33.97562 -117.70191 10215 ft 303 kts 274°
2026-05-06 00:40 33.97597 -117.72690 9986 ft 295 kts 274°
2026-05-06 00:40 33.97632 -117.75131 9819 ft 290 kts 274°
2026-05-06 00:40 33.97667 -117.77562 9571 ft 291 kts 274°
2026-05-06 00:40 33.97701 -117.80008 9121 ft 291 kts 273°
2026-05-06 00:41 33.97731 -117.82434 8758 ft 288 kts 273°
2026-05-06 00:41 33.97762 -117.84841 8367 ft 286 kts 273°
2026-05-06 00:41 33.97793 -117.87193 8002 ft 283 kts 272°
2026-05-06 00:41 33.97755 -117.89566 7840 ft 279 kts 269°
2026-05-06 00:42 33.97656 -117.91864 7713 ft 278 kts 269°
2026-05-06 00:42 33.97533 -117.94194 7472 ft 279 kts 268°
2026-05-06 00:42 33.97403 -117.96557 7001 ft 282 kts 268°
2026-05-06 00:42 33.97275 -117.98898 6784 ft 278 kts 268°
2026-05-06 00:43 33.97154 -118.01210 6486 ft 275 kts 267°
2026-05-06 00:43 33.97037 -118.03501 6084 ft 274 kts 267°
2026-05-06 00:43 33.96954 -118.05831 5459 ft 281 kts 267°
2026-05-06 00:43 33.96778 -118.08166 5058 ft 279 kts 263°
2026-05-06 00:44 33.96541 -118.10474 4680 ft 276 kts 263°
2026-05-06 00:44 33.96309 -118.12733 4301 ft 266 kts 263°
2026-05-06 00:44 33.96094 -118.14883 3946 ft 250 kts 263°
2026-05-06 00:44 33.95893 -118.16901 3625 ft 234 kts 263°
2026-05-06 00:45 33.95703 -118.18797 3331 ft 225 kts 263°
2026-05-06 00:45 33.95517 -118.20654 3033 ft 222 kts 263°
2026-05-06 00:45 33.95332 -118.22490 2738 ft 219 kts 262°
2026-05-06 00:45 33.95157 -118.24232 2465 ft 200 kts 263°
2026-05-06 00:46 33.95001 -118.25783 2224 ft 175 kts 263°
2026-05-06 00:46 33.94863 -118.27158 1985 ft 156 kts 263°
2026-05-06 00:46 33.94736 -118.28410 1783 ft 147 kts 263°
2026-05-06 00:46 33.94615 -118.29606 1573 ft 142 kts 263°
2026-05-06 00:47 33.94497 -118.30771 1393 ft 140 kts 263°
2026-05-06 00:47 33.94380 -118.31929 1204 ft 140 kts 263°
2026-05-06 00:47 33.94261 -118.33096 1006 ft 138 kts 262°
2026-05-06 00:47 33.94144 -118.34254 811 ft 139 kts 262°
2026-05-06 00:48 33.94027 -118.35408 621 ft 138 kts 265°
2026-05-06 00:48 33.93905 -118.36561 477 ft 140 kts 263°
2026-05-06 00:48 33.93803 -118.37725 274 ft 139 kts 260°
2026-05-06 00:48 33.93678 -118.38861 137 ft 132 kts 259°
2026-05-06 00:49 33.93572 -118.39820 126 ft 97 kts 265°
2026-05-06 00:49 33.93521 -118.40323 124 ft 30 kts 272°
2026-05-06 00:49 33.93557 -118.40512 124 ft 5 kts 283°
2026-05-06 00:49 33.93571 -118.40571 121 ft 7 kts 289°
2026-05-06 00:50 33.93582 -118.40605 123 ft 7 kts 291°
2026-05-06 00:50 33.93598 -118.40709 126 ft 17 kts 267°
2026-05-06 00:50 33.93616 -118.40861 125 ft 21 kts 310°
2026-05-06 00:50 33.93736 -118.40906 123 ft 13 kts
2026-05-06 00:51 33.93792 -118.40827 126 ft 16 kts 86°
2026-05-06 00:51 33.93807 -118.40677 125 ft 20 kts 78°
2026-05-06 00:51 33.93828 -118.40504 124 ft 20 kts 83°
2026-05-06 00:51 33.93842 -118.40349 123 ft 13 kts 81°
2026-05-06 00:52 33.93870 -118.40282 122 ft 6 kts 11°
2026-05-06 00:52 33.93937 -118.40302 123 ft 9 kts 329°
2026-05-06 00:52 33.93970 -118.40350 126 ft 4 kts 310°
2026-05-06 00:52 33.93984 -118.40369 131 ft 1 kts 310°